Preview of NWS' New Version of Forecast
This preview is not operational and should not be used for support decisions.

Regional Weather Roundup (RWR)

Issued by National Weather Service (NWS)

                            
000
ASUS45 KABQ 241610
RWRNM 
NEW MEXICO REGIONAL WEATHER ROUNDUP
NATIONAL WEATHER SERVICE ALBUQUERQUE NM
1000 AM MDT WED APR 24 2019

NOTE: "FAIR" MEANS FEW OR NO CLOUDS BELOW 12,000 FEET AGL WITH NO
       SIGNIFICANT WEATHER OR OBSTRUCTIONS TO VISION.

      THIS PRODUCT IS RELEASED AS TWO VERSIONS.  ONE VERSION NEAR
      THE TOP OF THE HOUR CONTAINING PRELIMINARY DATA FROM ALBUQUERQUE
      AND OTHER STATIONS.  A FINAL VERSION WITH ADDITIONAL DATA IS 
      ISSUED ABOUT 10 MINUTES AFTER THE HOUR.
 
NMZ501-503-504-510>518-241700-
NORTHWEST PLATEAU/NORTHCENTRAL MOUNTAINS
  
CITY           SKY/WX    TMP DP  RH WIND       PRES   REMARKS
FARMINGTON     FAIR      54  41  61 SE6       30.10S                  
LOS ALAMOS       N/A     49  41  73 NE8       30.13F                  
SANTA FE       NOT AVBL                                               
TAOS           FAIR      49  40  71 VRB6      30.16F                  
ANGEL FIRE       N/A     44  34  69 CALM      30.16S                  

$$
NMZ402-403-502-505>509-241700-
WESTCENTRAL MOUNTAINS/SOUTHWEST MOUNTAINS
  
CITY           SKY/WX    TMP DP  RH WIND       PRES   REMARKS
GALLUP         FAIR      54  37  52 W3        30.15S                  
GRANTS         FAIR      50  42  73 NW9G16    30.16S                  
SILVER CITY    FAIR      61  34  36 W10       30.08S                  

$$
NMZ407-409-411-412-241700-
SOUTHERN DESERTS
  
CITY           SKY/WX    TMP DP  RH WIND       PRES   REMARKS
DEMING         FAIR      59  41  51 SW3       30.06S                  
LAS CRUCES     FAIR      60  45  57 NW5       30.06S                  
HOLLOMAN AFB   FAIR      60  44  55 N3        30.06F                  
ALAMOGORDO     FAIR      57  45  62 CALM      30.05S                  
T OR C         FAIR      59  41  51 CALM      30.07S                  

$$
NMZ519>523-241700-
CENTRAL VALLEYS/CENTRAL HIGHLANDS
  
CITY           SKY/WX    TMP DP  RH WIND       PRES   REMARKS
ALBUQUERQUE    FAIR      54  43  66 NW7       30.08F                  
DOUBLE EAGLE   MOSUNNY   55  43  62 NE7       30.09F                  
MORIARTY ARPT  FAIR      56  45  66 N15G22    30.10S                  
CLINES CORNERS FAIR      50  42  74 NW7       30.10S                  
BELEN          FAIR      54  44  69 N6        30.09S                  
SOCORRO        FAIR      59  38  46 N9        30.08R                  

$$
NMZ524>526-539-540-241700-
SOUTHCENTRAL MOUNTAINS
  
CITY           SKY/WX    TMP DP  RH WIND       PRES   REMARKS
RUIDOSO        PTSUNNY   52  37  58 NW10G16   30.10R                  

$$
NMZ527>531-241700-
NORTHEAST HIGHLANDS/NORTHEAST PLAINS
  
CITY           SKY/WX    TMP DP  RH WIND       PRES   REMARKS
LAS VEGAS      FAIR      55  37  50 NE6       30.08S                  
RATON          FAIR      59  38  45 VRB3      30.04F                  
CLAYTON        FAIR      59  40  49 N6        30.00S                  

$$
NMZ532>537-241700-
EASTCENTRAL PLAINS
  
CITY           SKY/WX    TMP DP  RH WIND       PRES   REMARKS
SANTA ROSA     FAIR      54  46  73 N8        30.02F                  
TUCUMCARI      FAIR      57  46  66 W7        29.98F                  
CANNON AFB     FAIR      55  44  68 W9        30.03R                  
CLOVIS AIRPORT FAIR      56  44  64 W8        30.02F                  

$$
NMZ028-029-538-241700-
SOUTHEAST PLAINS
  
CITY           SKY/WX    TMP DP  RH WIND       PRES   REMARKS
ROSWELL        FAIR      61  48  62 S7        30.00S                  
ARTESIA        FAIR      57  52  82 CALM      30.02S                  
CARLSBAD       FAIR      56  49  77 VRB3      30.02R                  
HOBBS          PTSUNNY   54  46  76 SE3       30.05R                  


$$